Regional Weather Roundup
Issued by NWS

Home | Current Version | Previous Version | Graphics & Text | Print | Product List | Glossary On
Versions: 1 2 3 4 5 6 7 8 9 10 11 12 13 14 15 16 17 18 19 20 21 22 23 24 25 26 27 28 29 30 31 32 33 34 35 36 37 38 39 40 41 42 43 44 45 46 47 48 49 50
000
ASUS43 KLSX 241007
RWRMO

WEATHER SUMMARY FOR MISSOURI
NATIONAL WEATHER SERVICE SPRINGFIELD MO
500 AM CDT THU MAY 24 2018

NOTE: "FAIR" INDICATES FEW OR NO CLOUDS BELOW 12,000 FEET WITH NO
       SIGNIFICANT WEATHER AND/OR OBSTRUCTIONS TO VISIBILITY.
       CURRENT SKY AND/OR WEATHER CONDITIONS ARE NOT AVAILABLE FOR
       CHILLICOTHE AND FARMINGTON.

MOZ001>031-035>038-043-044-053-054-241100-
...NORTHERN AND WESTERN MISSOURI...

CITY           SKY/WX    TMP DP  RH WIND       PRES   REMARKS
KANSAS CTY INT CLOUDY    66  63  90 S7        30.09S
KANSAS C DTWN  PTCLDY    70  62  76 S6        30.09R
LEE`S SUMMIT   PTCLDY    66  64  93 SE6       30.11R
ST JOSEPH      CLOUDY    66  64  93 S5        30.09R
CHILLICOTHE      N/A     66  64  93 CALM      30.12R
KIRKSVILLE     CLEAR    N/A N/A N/A S5        30.13R

$$
MOZ066>068-077>081-088>096-101>105-241100-
...SOUTHWEST MISSOURI...

CITY           SKY/WX    TMP DP  RH WIND       PRES   REMARKS
SPRINGFIELD    CLOUDY    68  63  84 S3        30.11R
JOPLIN         CLOUDY    67  64  90 SE5       30.09F
BRANSON        PTCLDY    64  64 100 CALM      30.14R

$$
MOZ032>034-039>042-045>050-055>058-069>072-241100-
...CENTRAL MISSOURI...

CITY           SKY/WX    TMP DP  RH WIND       PRES   REMARKS
COLUMBIA       CLEAR     67  65  93 CALM      30.13R
JEFFERSON CITY CLEAR     67  65  93 N3        30.12R
ROLLA          PTCLDY    64  62  93 CALM      30.13S
SEDALIA        CLEAR     67  67 100 SE7       30.12R
WHITEMAN AFB   PTCLDY    64  64  98 S5        30.07R
WARRENSBURG    MOCLDY    64  63  94 S3        30.11R
OSAGE BEACH    CLEAR     63  63 100 CALM      30.14R

$$
MOZ051-052-059>065-241100-
...EAST CENTRAL MISSOURI...

CITY           SKY/WX    TMP DP  RH WIND       PRES   REMARKS
ST LOUIS INTL  PTCLDY    67  63  87 E5        30.13R
SPIRIT OF STL  PTCLDY    64  63  96 CALM      30.11R
ST CHARLES     PTCLDY    65  64  97 CALM      30.12R

$$
MOZ072>076-082>087-097>100-106>115-241100-
...SOUTH CENTRAL AND SOUTHEAST MISSOURI...

CITY           SKY/WX    TMP DP  RH WIND       PRES   REMARKS
CAPE GIRARDEAU FOG       65  63  93 E3        30.10R VSB 1
FARMINGTON     CLEAR     62  61  96 CALM      30.14R
POPLAR BLUFF   FAIR      67  67 100 CALM      30.09R
WEST PLAINS    MOCLDY    66  64  93 CALM      30.15R

$$




USA.gov is the U.S. government's official web portal to all federal, state and local government web resources and services.